Find Kosmos-1366

NORAD ID: 13177 Int'l Des: 1982-044 Owner: GUKOS Country: SU operational
HEOCIRCULARGSO

リアルタイム位置

3D地球を読み込み中...

Kosmos-1366について

説明を読み込み中...

次回通過

Passes for default location (London). Set your location on the main map for personalized predictions.

高度履歴

Loading altitude history...

軌道要素

1 13177U 82044A 26107.09765221 -.00000136 00000-0 00000-0 0 9996
2 13177 8.4399 297.8696 0008538 115.9584 264.9741 1.00287262133006
Epoch: Apr 17, 2026 • Age: 14 hours

現在のステータス

高度 35800.8 km
速度 3.07 km/s
衛星直下点 -6.96°S, 78.24°E
打ち上げ日 May 17, 1982
運用期間 43.9 years
タイプ other

技術仕様

分類 Payload
質量 2100.00 kg
乾燥質量 1900.00 kg
総質量 2100.00 kg
長さ 5.50 m
直径 2.50 m
スパン 9.00 m
形状 Cyl + 2 Pan + Plate
製造者 NPOPM
バスタイプ Geizer
フェーズステータス In Orbit
所有者/国 GUKOS/SU

Most Searched